カタログに戻る

BREEZE-KM DEB

運用中PO
NORAD 41723·DEBRIS·🇷🇺 Russia

打ち上げ Mar 31, 2015 から Plesetsk Cosmodrome

Loading…

次のパス (今後24時間)

TLE

最新Source: Space-Track

元期: Sep 11, 2026, 18:54 UTC

1 41723U 15020L   26254.78804541  .00000176  00000-0  54258-3 0  9992
2 41723  82.4830  89.2091 0221009  15.8969 344.8932 12.92961640510521

AllMySatでBREEZE-KM DEBをリアルタイム追跡

Download on the App Store